GTI4436 KSAN-KSFO

Flight info

Callsign GTI4436
Flight time 1h 12m
Altitude 34000
Route PADRZ2 IKAYE RIZIN SPLNT STOKD SERFR SERFR4
Aircraft B77L/H-SDE1E2E3FGHIJ2J3J4J5M1RWXY/LB1D1

Departure

Time 2026-04-23 03:41
Airport San Diego International Airport (KSAN)

Arrival

Time 2026-04-23 04:53
Airport San Francisco International Airport (KSFO)
Time Latitude Longitude Altitude Speed Heading
2026-04-23 03:22 32.73397 -117.18315 31 ft 0 kts 107°
2026-04-23 03:33 32.73399 -117.18323 28 ft 2 kts 107°
2026-04-23 03:34 32.73405 -117.18341 31 ft 2 kts 111°
2026-04-23 03:34 32.73411 -117.18359 31 ft 2 kts 118°
2026-04-23 03:34 32.73420 -117.18376 30 ft 2 kts 131°
2026-04-23 03:34 32.73432 -117.18389 30 ft 2 kts 154°
2026-04-23 03:35 32.73445 -117.18395 31 ft 1 kts 160°
2026-04-23 03:35 32.73447 -117.18396 30 ft 0 kts 159°
2026-04-23 03:37 32.73445 -117.18395 31 ft 3 kts 160°
2026-04-23 03:37 32.73397 -117.18397 29 ft 7 kts 192°
2026-04-23 03:37 32.73348 -117.18397 28 ft 7 kts 160°
2026-04-23 03:37 32.73321 -117.18347 27 ft 8 kts 105°
2026-04-23 03:38 32.73303 -117.18273 29 ft 11 kts 106°
2026-04-23 03:38 32.73279 -117.18174 27 ft 13 kts 106°
2026-04-23 03:38 32.73254 -117.18073 29 ft 13 kts 106°
2026-04-23 03:38 32.73230 -117.17973 27 ft 13 kts 106°
2026-04-23 03:39 32.73205 -117.17872 25 ft 13 kts 106°
2026-04-23 03:39 32.73177 -117.17754 27 ft 15 kts 106°
2026-04-23 03:39 32.73147 -117.17633 27 ft 15 kts 106°
2026-04-23 03:39 32.73082 -117.17539 26 ft 15 kts 151°
2026-04-23 03:40 32.73024 -117.17544 28 ft 8 kts 244°
2026-04-23 03:40 32.73046 -117.17685 24 ft 45 kts 286°
2026-04-23 03:40 32.73206 -117.18341 29 ft 117 kts 286°
2026-04-23 03:40 32.73481 -117.19497 56 ft 168 kts 285°
2026-04-23 03:41 32.73798 -117.20830 658 ft 170 kts 288°
2026-04-23 03:41 32.74280 -117.22093 1246 ft 172 kts 304°
2026-04-23 03:41 32.74993 -117.23313 1593 ft 196 kts 305°
2026-04-23 03:41 32.75834 -117.24742 1919 ft 224 kts 304°
2026-04-23 03:42 32.76750 -117.26312 2658 ft 237 kts 305°
2026-04-23 03:42 32.77698 -117.27948 3578 ft 240 kts 304°
2026-04-23 03:42 32.78652 -117.29604 4533 ft 246 kts 304°
2026-04-23 03:42 32.79629 -117.31302 5395 ft 253 kts 304°
2026-04-23 03:43 32.80667 -117.32998 6328 ft 256 kts 307°
2026-04-23 03:43 32.81770 -117.34696 7128 ft 263 kts 307°
2026-04-23 03:43 32.82889 -117.36411 8087 ft 262 kts 306°
2026-04-23 03:43 32.84005 -117.38128 9058 ft 263 kts 306°
2026-04-23 03:44 32.84747 -117.39272 9694 ft 264 kts 306°
2026-04-23 03:44 32.85891 -117.41040 10500 ft 271 kts 306°
2026-04-23 03:44 32.87072 -117.42873 10785 ft 297 kts 306°
2026-04-23 03:44 32.88385 -117.44912 11009 ft 324 kts 306°
2026-04-23 03:45 32.89806 -117.47119 11422 ft 344 kts 306°
2026-04-23 03:45 32.91280 -117.49407 12181 ft 352 kts 306°
2026-04-23 03:45 32.92781 -117.51741 13132 ft 356 kts 306°
2026-04-23 03:45 32.94293 -117.54093 14102 ft 359 kts 306°
2026-04-23 03:46 32.95820 -117.56473 14945 ft 363 kts 305°
2026-04-23 03:46 32.97365 -117.58883 15773 ft 368 kts 305°
2026-04-23 03:46 32.98928 -117.61323 16604 ft 373 kts 304°
2026-04-23 03:46 33.00488 -117.63760 17424 ft 377 kts 304°
2026-04-23 03:47 33.02084 -117.66253 18344 ft 379 kts 304°
2026-04-23 03:47 33.03695 -117.68772 19083 ft 383 kts 303°
2026-04-23 03:47 33.05316 -117.71309 19798 ft 386 kts 303°
2026-04-23 03:47 33.07033 -117.73801 20502 ft 392 kts 310°
2026-04-23 03:48 33.09105 -117.75973 21156 ft 401 kts 316°
2026-04-23 03:48 33.11292 -117.78063 21839 ft 404 kts 316°
2026-04-23 03:48 33.13478 -117.80196 22540 ft 407 kts 315°
2026-04-23 03:48 33.15655 -117.82381 23241 ft 410 kts 314°
2026-04-23 03:49 33.17837 -117.84602 23882 ft 414 kts 314°
2026-04-23 03:49 33.20018 -117.86861 24451 ft 416 kts 312°
2026-04-23 03:49 33.22092 -117.89213 25037 ft 416 kts 310°
2026-04-23 03:49 33.24143 -117.91668 25640 ft 418 kts 309°
2026-04-23 03:50 33.26188 -117.94158 26214 ft 421 kts 309°
2026-04-23 03:50 33.28245 -117.96664 26770 ft 424 kts 309°
2026-04-23 03:50 33.30326 -117.99190 27313 ft 427 kts 309°
2026-04-23 03:50 33.32430 -118.01729 27852 ft 431 kts 309°
2026-04-23 03:51 33.34549 -118.04275 28378 ft 434 kts 309°
2026-04-23 03:51 33.36687 -118.06839 28887 ft 437 kts 309°
2026-04-23 03:51 33.38844 -118.09425 29356 ft 441 kts 309°
2026-04-23 03:51 33.41020 -118.12032 29805 ft 444 kts 309°
2026-04-23 03:52 33.43206 -118.14650 30408 ft 442 kts 309°
2026-04-23 03:52 33.45333 -118.17193 31272 ft 431 kts 308°
2026-04-23 03:52 33.47420 -118.19684 32393 ft 416 kts 307°
2026-04-23 03:52 33.49433 -118.22088 33429 ft 403 kts 306°
2026-04-23 03:53 33.51404 -118.24452 34052 ft 400 kts 306°
2026-04-23 03:53 33.53366 -118.26822 34099 ft 401 kts 306°
2026-04-23 03:53 33.57285 -118.31561 34133 ft 402 kts 306°
2026-04-23 03:54 33.61268 -118.36383 34126 ft 410 kts 306°
2026-04-23 03:54 33.65308 -118.41266 34114 ft 411 kts 306°
2026-04-23 03:55 33.69301 -118.46081 34100 ft 403 kts 306°
2026-04-23 03:55 33.73247 -118.50860 34107 ft 403 kts 306°
2026-04-23 03:56 33.77237 -118.55713 34113 ft 415 kts 307°
2026-04-23 03:56 33.81314 -118.60670 34094 ft 417 kts 307°
2026-04-23 03:57 33.85361 -118.65586 34097 ft 416 kts 307°
2026-04-23 03:57 33.89417 -118.70523 34096 ft 413 kts 306°
2026-04-23 03:58 33.93445 -118.75435 34107 ft 413 kts 307°
2026-04-23 03:58 33.97482 -118.80372 34100 ft 415 kts 307°
2026-04-23 03:59 34.01537 -118.85336 34103 ft 417 kts 307°
2026-04-23 03:59 34.05613 -118.90330 34105 ft 418 kts 307°
2026-04-23 04:00 34.09703 -118.95348 34142 ft 420 kts 307°
2026-04-23 04:00 34.13813 -119.00412 34107 ft 422 kts 306°
2026-04-23 04:01 34.17137 -119.06110 34106 ft 414 kts 295°
2026-04-23 04:01 34.20068 -119.12043 34111 ft 414 kts 295°
2026-04-23 04:02 34.23068 -119.18006 34104 ft 415 kts 296°
2026-04-23 04:02 34.26109 -119.23954 34111 ft 416 kts 296°
2026-04-23 04:03 34.29162 -119.29907 34106 ft 417 kts 296°
2026-04-23 04:03 34.32214 -119.35869 34104 ft 416 kts 296°
2026-04-23 04:04 34.35254 -119.41821 34094 ft 416 kts 296°
2026-04-23 04:04 34.38289 -119.47775 34094 ft 415 kts 296°
2026-04-23 04:05 34.41551 -119.53570 34092 ft 419 kts 302°
2026-04-23 04:05 34.45526 -119.58801 34088 ft 424 kts 308°
2026-04-23 04:06 34.49662 -119.63822 34074 ft 423 kts 308°
2026-04-23 04:06 34.53795 -119.68896 34092 ft 424 kts 308°
2026-04-23 04:07 34.57937 -119.73996 34107 ft 425 kts 308°
2026-04-23 04:07 34.62091 -119.79121 34110 ft 425 kts 308°
2026-04-23 04:08 34.66233 -119.84238 34117 ft 426 kts 308°
2026-04-23 04:08 34.70387 -119.89380 34124 ft 426 kts 308°
2026-04-23 04:09 34.74539 -119.94526 34166 ft 426 kts 308°
2026-04-23 04:09 34.78677 -119.99660 34137 ft 424 kts 308°
2026-04-23 04:10 34.82802 -120.04785 34159 ft 423 kts 308°
2026-04-23 04:10 34.86913 -120.09906 34159 ft 423 kts 308°
2026-04-23 04:11 34.91021 -120.15033 34187 ft 423 kts 308°
2026-04-23 04:11 34.95100 -120.20134 34187 ft 422 kts 308°
2026-04-23 04:12 34.99208 -120.25269 34178 ft 422 kts 308°
2026-04-23 04:12 35.03308 -120.30404 34178 ft 423 kts 308°
2026-04-23 04:13 35.07406 -120.35546 34210 ft 422 kts 308°
2026-04-23 04:13 35.11643 -120.40552 34169 ft 424 kts 310°
2026-04-23 04:14 35.16005 -120.45407 34166 ft 423 kts 311°
2026-04-23 04:14 35.20317 -120.50211 34169 ft 422 kts 310°
2026-04-23 04:15 35.24641 -120.55063 34221 ft 421 kts 310°
2026-04-23 04:16 35.31121 -120.62367 34175 ft 422 kts 310°
2026-04-23 04:16 35.35441 -120.67242 34174 ft 422 kts 310°
2026-04-23 04:17 35.39750 -120.72111 34185 ft 421 kts 310°
2026-04-23 04:17 35.44051 -120.76979 34191 ft 420 kts 310°
2026-04-23 04:18 35.48353 -120.81813 34201 ft 420 kts 312°
2026-04-23 04:18 35.53019 -120.86200 34177 ft 423 kts 315°
2026-04-23 04:19 35.57709 -120.90528 34243 ft 421 kts 315°
2026-04-23 04:19 35.62376 -120.94860 34198 ft 419 kts 315°
2026-04-23 04:20 35.67015 -120.99180 34187 ft 418 kts 315°
2026-04-23 04:20 35.71643 -121.03496 34188 ft 417 kts 315°
2026-04-23 04:21 35.76245 -121.07795 34211 ft 418 kts 315°
2026-04-23 04:21 35.80885 -121.12135 34199 ft 418 kts 315°
2026-04-23 04:22 35.85522 -121.16479 34198 ft 418 kts 315°
2026-04-23 04:22 35.90103 -121.20769 34191 ft 403 kts 314°
2026-04-23 04:22 35.92303 -121.22826 34225 ft 390 kts 314°
2026-04-23 04:23 35.94427 -121.24817 34059 ft 379 kts 314°
2026-04-23 04:23 35.96504 -121.26772 33721 ft 372 kts 314°
2026-04-23 04:23 35.98548 -121.28703 33286 ft 369 kts 314°
2026-04-23 04:23 36.00557 -121.30604 32848 ft 370 kts 314°
2026-04-23 04:24 36.02624 -121.32561 32386 ft 380 kts 314°
2026-04-23 04:24 36.04746 -121.34570 31873 ft 388 kts 314°
2026-04-23 04:24 36.06889 -121.36587 31366 ft 387 kts 315°
2026-04-23 04:24 36.09111 -121.38476 30906 ft 388 kts 319°
2026-04-23 04:25 36.11396 -121.40243 30408 ft 387 kts 320°
2026-04-23 04:25 36.13687 -121.41971 29843 ft 385 kts 320°
2026-04-23 04:25 36.15904 -121.43764 29303 ft 375 kts 314°
2026-04-23 04:25 36.17752 -121.45957 28851 ft 362 kts 304°
2026-04-23 04:26 36.19165 -121.48478 28341 ft 353 kts 295°
2026-04-23 04:26 36.20144 -121.51207 28004 ft 343 kts 284°
2026-04-23 04:26 36.20594 -121.54066 27655 ft 335 kts 274°
2026-04-23 04:26 36.20506 -121.56918 27409 ft 329 kts 263°
2026-04-23 04:27 36.19887 -121.59629 27302 ft 332 kts 251°
2026-04-23 04:27 36.18585 -121.62109 27257 ft 360 kts 233°
2026-04-23 04:27 36.16505 -121.64010 27238 ft 385 kts 214°
2026-04-23 04:28 36.10938 -121.64948 27215 ft 434 kts 178°
2026-04-23 04:28 36.08053 -121.63779 27215 ft 453 kts 160°
2026-04-23 04:28 36.05419 -121.61538 27218 ft 469 kts 142°
2026-04-23 04:28 36.03327 -121.58395 27218 ft 480 kts 124°
2026-04-23 04:29 36.02063 -121.54559 27168 ft 487 kts 102°
2026-04-23 04:29 36.01898 -121.50404 27231 ft 484 kts 79°
2026-04-23 04:29 36.02835 -121.46463 27216 ft 474 kts 57°
2026-04-23 04:29 36.04729 -121.43242 27213 ft 455 kts 34°
2026-04-23 04:30 36.07282 -121.41139 27231 ft 431 kts 12°
2026-04-23 04:30 36.10101 -121.40251 27228 ft 412 kts 357°
2026-04-23 04:30 36.12931 -121.40066 27227 ft 404 kts 349°
2026-04-23 04:30 36.15710 -121.40270 27239 ft 397 kts 345°
2026-04-23 04:31 36.18432 -121.40759 27236 ft 392 kts 339°
2026-04-23 04:31 36.21020 -121.41687 27227 ft 381 kts 330°
2026-04-23 04:31 36.23377 -121.43092 27240 ft 373 kts 322°
2026-04-23 04:31 36.25546 -121.44827 27225 ft 369 kts 317°
2026-04-23 04:32 36.26909 -121.46084 27229 ft 367 kts 315°
2026-04-23 04:32 36.28888 -121.48060 27189 ft 365 kts 314°
2026-04-23 04:32 36.31482 -121.50776 26508 ft 368 kts 313°
2026-04-23 04:32 36.33424 -121.52838 26012 ft 365 kts 313°
2026-04-23 04:33 36.35345 -121.54880 25567 ft 363 kts 313°
2026-04-23 04:33 36.37256 -121.56908 25094 ft 360 kts 314°
2026-04-23 04:33 36.38541 -121.58269 24799 ft 359 kts 314°
2026-04-23 04:33 36.40409 -121.60246 24350 ft 357 kts 314°
2026-04-23 04:34 36.42296 -121.62245 23902 ft 356 kts 314°
2026-04-23 04:34 36.44180 -121.64241 23384 ft 355 kts 315°
2026-04-23 04:34 36.46052 -121.66221 22904 ft 352 kts 315°
2026-04-23 04:34 36.47915 -121.68192 22435 ft 350 kts 315°
2026-04-23 04:35 36.49770 -121.70137 21993 ft 348 kts 317°
2026-04-23 04:35 36.51749 -121.71879 21554 ft 349 kts 322°
2026-04-23 04:35 36.53802 -121.73470 21135 ft 347 kts 323°
2026-04-23 04:35 36.55858 -121.75026 20723 ft 344 kts 323°
2026-04-23 04:36 36.57893 -121.76581 20280 ft 342 kts 323°
2026-04-23 04:36 36.59906 -121.78141 19876 ft 340 kts 323°
2026-04-23 04:36 36.61878 -121.79686 19458 ft 338 kts 323°
2026-04-23 04:36 36.63861 -121.81250 19042 ft 337 kts 323°
2026-04-23 04:37 36.65833 -121.82811 18621 ft 335 kts 323°
2026-04-23 04:37 36.67796 -121.84369 18157 ft 334 kts 324°
2026-04-23 04:37 36.69752 -121.85922 17705 ft 332 kts 324°
2026-04-23 04:37 36.71688 -121.87460 17278 ft 329 kts 324°
2026-04-23 04:38 36.73617 -121.88971 16863 ft 326 kts 327°
2026-04-23 04:38 36.75715 -121.89991 16456 ft 324 kts 343°
2026-04-23 04:38 36.77916 -121.90550 16034 ft 322 kts 344°
2026-04-23 04:38 36.80121 -121.91126 15523 ft 323 kts 344°
2026-04-23 04:39 36.82315 -121.91717 15118 ft 321 kts 344°
2026-04-23 04:39 36.84487 -121.92311 14720 ft 319 kts 344°
2026-04-23 04:39 36.86647 -121.92909 14333 ft 316 kts 344°
2026-04-23 04:39 36.88785 -121.93504 13954 ft 314 kts 344°
2026-04-23 04:40 36.90910 -121.94098 13535 ft 311 kts 344°
2026-04-23 04:40 36.93014 -121.94686 13143 ft 308 kts 345°
2026-04-23 04:40 36.95102 -121.95274 12774 ft 307 kts 344°
2026-04-23 04:40 36.97166 -121.95987 12412 ft 309 kts 341°
2026-04-23 04:41 36.99236 -121.96802 12035 ft 314 kts 340°
2026-04-23 04:41 37.01295 -121.97630 11656 ft 315 kts 341°
2026-04-23 04:41 37.03381 -121.98464 11280 ft 313 kts 341°
2026-04-23 04:41 37.05450 -121.99285 10892 ft 309 kts 341°
2026-04-23 04:42 37.07492 -122.00091 10552 ft 305 kts 341°
2026-04-23 04:42 37.09478 -122.00873 10422 ft 293 kts 341°
2026-04-23 04:42 37.11395 -122.01624 10280 ft 283 kts 341°
2026-04-23 04:42 37.13237 -122.02345 10147 ft 272 kts 342°
2026-04-23 04:43 37.15005 -122.03038 10021 ft 260 kts 342°
2026-04-23 04:43 37.16705 -122.03704 9798 ft 253 kts 342°
2026-04-23 04:43 37.18345 -122.04346 9541 ft 249 kts 342°
2026-04-23 04:43 37.20017 -122.05002 9261 ft 256 kts 342°
2026-04-23 04:44 37.21740 -122.05678 8968 ft 262 kts 342°
2026-04-23 04:44 37.23486 -122.06361 8652 ft 262 kts 343°
2026-04-23 04:44 37.25219 -122.07041 8338 ft 259 kts 342°
2026-04-23 04:44 37.26922 -122.07711 8060 ft 254 kts 342°
2026-04-23 04:45 37.28599 -122.08371 7738 ft 253 kts 343°
2026-04-23 04:45 37.30289 -122.09035 7430 ft 257 kts 343°
2026-04-23 04:45 37.31998 -122.09707 7094 ft 257 kts 343°
2026-04-23 04:45 37.33702 -122.10378 6761 ft 256 kts 343°
2026-04-23 04:46 37.35401 -122.11049 6406 ft 255 kts 343°
2026-04-23 04:46 37.37086 -122.11714 6053 ft 253 kts 343°
2026-04-23 04:46 37.38766 -122.12337 5746 ft 250 kts 345°
2026-04-23 04:46 37.40440 -122.12903 5429 ft 248 kts 346°
2026-04-23 04:47 37.42080 -122.13457 5137 ft 246 kts 346°
2026-04-23 04:47 37.43731 -122.14019 4845 ft 245 kts 346°
2026-04-23 04:47 37.45377 -122.14580 4537 ft 244 kts 346°
2026-04-23 04:47 37.47022 -122.15122 4251 ft 244 kts 346°
2026-04-23 04:48 37.48668 -122.15662 3972 ft 243 kts 346°
2026-04-23 04:48 37.50287 -122.16196 3676 ft 239 kts 346°
2026-04-23 04:48 37.51885 -122.16723 3384 ft 235 kts 346°
2026-04-23 04:48 37.53316 -122.17576 3099 ft 226 kts 318°
2026-04-23 04:49 37.54249 -122.19115 2835 ft 217 kts 305°
2026-04-23 04:49 37.55030 -122.20683 2540 ft 203 kts 302°
2026-04-23 04:49 37.55686 -122.22193 2302 ft 194 kts 300°
2026-04-23 04:49 37.56316 -122.23696 2143 ft 192 kts 300°
2026-04-23 04:50 37.56933 -122.25167 1967 ft 188 kts 300°
2026-04-23 04:50 37.57532 -122.26596 1678 ft 179 kts 300°
2026-04-23 04:50 37.58087 -122.27927 1438 ft 163 kts 299°
2026-04-23 04:50 37.58606 -122.29166 1245 ft 159 kts 299°
2026-04-23 04:51 37.59119 -122.30384 1021 ft 152 kts 298°
2026-04-23 04:51 37.59589 -122.31510 806 ft 140 kts 297°
2026-04-23 04:51 37.60038 -122.32581 631 ft 137 kts 297°
2026-04-23 04:51 37.60484 -122.33645 429 ft 137 kts 297°
2026-04-23 04:52 37.60928 -122.34704 263 ft 135 kts 297°
2026-04-23 04:52 37.61358 -122.35732 85 ft 129 kts 297°
2026-04-23 04:52 37.61749 -122.36664 28 ft 107 kts 297°
2026-04-23 04:52 37.62065 -122.37410 20 ft 86 kts 298°
2026-04-23 04:53 37.62317 -122.38013 30 ft 70 kts 298°
2026-04-23 04:53 37.62531 -122.38517 28 ft 61 kts 298°
2026-04-23 04:53 37.62701 -122.38917 27 ft 38 kts 298°
2026-04-23 04:53 37.62792 -122.39093 29 ft 20 kts 327°
2026-04-23 04:54 37.62921 -122.39166 26 ft 20 kts 336°
2026-04-23 04:54 37.63050 -122.39237 26 ft 20 kts 339°
2026-04-23 04:54 37.63165 -122.39201 27 ft 14 kts 63°
2026-04-23 04:54 37.63215 -122.39145 24 ft 10 kts 356°
2026-04-23 04:55 37.63282 -122.39173 23 ft 10 kts 341°
2026-04-23 04:55 37.63350 -122.39161 22 ft 11 kts 36°
2026-04-23 04:55 37.63391 -122.39085 23 ft 11 kts 63°
2026-04-23 04:55 37.63423 -122.39002 24 ft 11 kts 67°
2026-04-23 04:56 37.63446 -122.38904 19 ft 13 kts 68°
2026-04-23 04:56 37.63512 -122.38815 19 ft 14 kts 23°
2026-04-23 04:56 37.63602 -122.38853 23 ft 14 kts 328°
2026-04-23 04:56 37.63687 -122.38919 23 ft 15 kts 327°
2026-04-23 04:57 37.63761 -122.38991 25 ft 11 kts 330°
2026-04-23 04:57 37.63820 -122.39006 22 ft 6 kts 18°
2026-04-23 04:57 37.63832 -122.38953 23 ft 0 kts 89°